Weather in Verkhnodniprovsk

Ukraine / Dnipropetrovsk Region     48°38′33″N   34°20′24″E
temp.,
°C
wind,
m/s
gust,
m/s
humid.,
%
clouds,
%
prec.,
mm/h
press.,
hPa
HPBL,
m
19 april, mon
mon1900:00+8nnw3380100 0.0 101759
03:00+7nnw3489100 0.0 101687
06:00+6n3493100 0.0 1016137
09:00+7nnw3382100 0.0 1016233
12:00+9wnw2274100 0.0 1015338
15:00+11nnw2366100 0.0 1014737
18:00+11nnw236255 0.0 1014379
21:00+10n346977 0.0 101365
20 april, tue
tue2000:00+8nne238091 0.0 101266
03:00+8n2384100 0.0 101053
06:00+8nne3584100 0.0 1008104
09:00+8nne4690100 0.8 1007170
12:00+8n61091100 1.1 1004396
15:00+10n61088100 3.6 1002434
18:00+9nw5990100 1.6 1003311
21:00+9w5794100 2.3 1005171
21 april, wed
wed2100:00+9w71189100 0.6 1007311
03:00+8w5988100 0.6 1009278
06:00+7wsw588898 0.1 1010249
09:00+9w577916 0.1 1013350
12:00+11w456644 0.3 1013860
15:00+11w456531 0.4 1015580
18:00+12nnw345543 0.0 1015670
21:00+10ese116473 0.0 101610
22 april, thu
thu2200:00+9ssw457198 0.0 101775
03:00+10s2275100 0.1 101732
06:00+8s368999 0.0 1018113
09:00+10ssw457788 0.0 1019310
12:00+13sw566362 0.4 1019802
15:00+13w2361100 0.4 1018813
18:00+13s2363100 0.0 101936
21:00+12s4568100 0.0 101973
23 april, fri
fri2300:00+11sw47757 0.0 101994
03:00+9ssw488076 0.0 1019120
06:00+8ssw598415 0.0 1019163
09:00+12ssw69675 0.0 1019298
12:00+15ssw795325 0.0 1018838
15:00+15ssw7958100 0.0 1017593
18:00+15s7106197 0.2 1015391
21:00+11wsw5982100 1.2 1017229